Cartersville, GA

6:52 AM EDT on September 20, 2019 (GMT -0400)
Cartersville

Weather History for KVPC - August, 2019

Change the Weather History Date:

Monday, August 19, 2019

  Actual Average Record
Temperature  
Mean Temperature 83 °F 78 °F  
Max Temperature 95 °F 90 °F 96 °F (2007)
Min Temperature 71 °F 67 °F 63 °F (2004)
Cooling Degree Days 18 13  
Month to date cooling degree days 328 263  
Year to date cooling degree days 1408 1119  
Since 1 June cooling degree days 1107 970  
Growing Degree Days 33 (Base 50)    
Moisture  
Dew Point 71 °F    
Average Humidity 79    
Maximum Humidity 93    
Minimum Humidity 49    
Precipitation  
Precipitation 0.07 in 0.12 in 0.66 in (2003)
Month to date precipitation 1.95 2.68  
Year to date precipitation 30.48 33.34  
Sea Level Pressure  
Sea Level Pressure 30.03 in    
Wind  
Wind Speed 2 mph ()    
Max Wind Speed 20 mph    
Max Gust Speed 25 mph    
Visibility 10.0 miles    
Events Thunderstorm    
T = Trace of Precipitation, MM = Missing Value Source: Averaged Metar Reports

Daily Weather History Graph

Daily Weather History Graph

Search for Another Location

Airport or City:

Astronomy

Aug. 19, 2019 Rise Set
Actual Time 7:03 AM EDT 8:22 PM EDT
Civil Twilight 6:37 AM EDT 8:48 PM EDT
Nautical Twilight 6:05 AM EDT 9:19 PM EDT
Astronomical Twilight 5:33 AM EDT 9:51 PM EDT
Moon 10:53 PM EDT (8/19) 10:35 AM EDT (8/19)
Length of Visible Light 14h 10m
Length of Day
13h 18m
Waning Gibbous, 85% of the Moon is Illuminated
Aug 19
Waning Gibbous
Aug 23
Last Quarter
Aug 30
New
Sep 5
First Quarter
Sep 14
Full

Hourly Weather History & Observations

Time (EDT) Temp. Heat Index Dew Point Humidity Pressure Visibility Wind Dir Wind Speed Gust Speed Precip Events Conditions
12:53 AM 75.0 °F - 70.0 °F 84% 29.99 in 10.0 mi Calm Calm - N/A   Clear
1:53 AM 75.9 °F - 69.1 °F 79% 29.99 in 10.0 mi Calm Calm - N/A   Clear
2:53 AM 75.0 °F - 70.0 °F 84% 29.99 in 10.0 mi Calm Calm - N/A   Clear
3:53 AM 73.9 °F - 70.0 °F 87% 29.99 in 10.0 mi Calm Calm - N/A   Clear
4:53 AM 73.0 °F - 70.0 °F 90% 30.00 in 10.0 mi Calm Calm - N/A   Clear
5:53 AM 73.9 °F - 70.0 °F 87% 30.01 in 10.0 mi Calm Calm - N/A   Clear
6:53 AM 73.0 °F - 71.1 °F 93% 30.02 in 10.0 mi Calm Calm - N/A   Clear
7:53 AM 75.9 °F - 72.0 °F 87% 30.04 in 10.0 mi East 3.5 mph - N/A   Clear
8:53 AM 78.1 °F - 73.0 °F 84% 30.05 in 10.0 mi SE 4.6 mph - N/A   Clear
9:53 AM 81.0 °F 86.2 °F 73.9 °F 79% 30.04 in 10.0 mi ESE 3.5 mph - N/A   Clear
10:53 AM 82.9 °F 89.4 °F 73.9 °F 74% 30.05 in 10.0 mi Calm Calm - N/A   Clear
11:53 AM 86.0 °F 95.1 °F 75.0 °F 70% 30.06 in 10.0 mi Calm Calm - N/A   Clear
12:53 PM 88.0 °F 97.5 °F 75.0 °F 65% 30.06 in 10.0 mi SE 5.8 mph - N/A   Clear
1:53 PM 91.0 °F 100.4 °F 73.9 °F 57% 30.04 in 10.0 mi ESE 8.1 mph - N/A   Clear
2:53 PM 93.9 °F 103.4 °F 73.0 °F 51% 30.00 in 10.0 mi Variable 4.6 mph - N/A   Partly Cloudy
3:34 PM 93.9 °F 102.1 °F 72.0 °F 49% 30.04 in 10.0 mi Variable 4.6 mph - N/A Thunderstorm Mostly Cloudy
3:53 PM 86.0 °F 89.4 °F 68.0 °F 55% 30.01 in 10.0 mi NNE 16.1 mph - N/A Thunderstorm Mostly Cloudy
4:06 PM 82.0 °F 83.8 °F 64.9 °F 56% 30.05 in 10.0 mi NE 12.7 mph 23.0 mph N/A Thunderstorm Thunderstorm
4:46 PM 73.0 °F - 66.9 °F 81% 30.05 in 10.0 mi NE 5.8 mph - 0.06 in Thunderstorm Mostly Cloudy
4:53 PM 73.9 °F - 68.0 °F 82% 30.01 in 10.0 mi Variable 4.6 mph - 0.06 in Thunderstorm Mostly Cloudy
5:09 PM 73.0 °F - 69.1 °F 87% 30.05 in 10.0 mi Calm Calm - N/A   Mostly Cloudy
5:53 PM 73.9 °F - 71.1 °F 91% 30.01 in 10.0 mi Calm Calm - 0.01 in   Partly Cloudy
6:53 PM 75.0 °F - 71.1 °F 87% 30.00 in 10.0 mi Calm Calm - N/A   Clear
7:53 PM 75.0 °F - 72.0 °F 90% 30.02 in 10.0 mi East 3.5 mph - N/A   Clear
8:53 PM 73.9 °F - 71.1 °F 91% 30.05 in 10.0 mi Calm Calm - N/A   Clear
9:53 PM 73.9 °F - 70.0 °F 87% 30.06 in 10.0 mi Calm Calm - N/A   Clear
10:53 PM 72.0 °F - 70.0 °F 93% 30.08 in 9.0 mi NE 4.6 mph - N/A   Clear
11:53 PM 72.0 °F - 70.0 °F 93% 30.07 in 10.0 mi Calm Calm - N/A   Clear